Date String (YYYY-MM-DD hh:mm:ss) UTC,Instrument flags,Ambient pressure (hPa),Sample flow (lpm),Bypass flow (lpm),Sample temperature (°C),Ambient temperature (°C),ASC tube jacket temperature (°C),LED temperature (°C),Box temperature (°C),Sample RH (%),Span deviation,Mass concentration (μg/m³),Mass concentration (μg/m³),Mass concentration (μg/m³)
DateTimeUTC,F1_M11,P_M11,Q1_M11,Q2_M11,T1_M11,T2_M11,T3_M11,T4_M11,T5_M11,U1_M11,ZSPAN_M11,X2_M11,X0_M11,X1_M11
2022-09-20 16:00:00,,0828.8,5.00,0.00,30.2,28.9,00.0,38.8,32.0,15.5,0000.0,0003.24,0009.92,0002.49
2022-09-20 16:01:00,,0829.1,5.00,0.00,30.2,28.0,00.0,38.8,32.0,15.2,0000.0,0003.23,0009.91,0002.51
2022-09-20 16:02:00,,0829.0,5.00,0.00,30.1,26.9,00.0,38.7,31.9,15.9,0000.0,0003.22,0008.72,0002.50
2022-09-20 16:03:00,,0829.1,4.99,0.00,30.1,27.0,00.0,38.7,31.9,16.9,0000.0,0003.21,0008.34,0002.50
2022-09-20 16:04:00,,0828.9,5.00,0.00,30.0,27.3,00.0,38.7,31.8,17.4,0000.0,0003.23,0008.09,0002.50
2022-09-20 16:05:00,,0829.0,5.00,0.00,30.0,27.6,00.0,38.7,31.7,17.9,0000.0,0003.25,0008.18,0002.50
2022-09-20 16:06:00,,0828.7,5.01,0.00,30.0,27.9,00.0,38.6,31.7,17.6,0000.0,0003.28,0008.27,0002.51
2022-09-20 16:07:00,,0828.7,4.99,0.00,30.0,28.1,00.0,38.6,31.8,17.6,0000.0,0003.29,0007.71,0002.50
2022-09-20 16:08:00,,0829.0,5.01,0.00,30.0,28.3,00.0,38.7,31.8,17.7,0000.0,0003.30,0007.51,0002.51
2022-09-20 16:09:00,,0828.8,4.99,0.00,30.0,28.5,00.0,38.7,31.8,18.1,0000.0,0003.33,0007.83,0002.53
2022-09-20 16:10:00,,0828.8,5.01,0.00,30.0,28.6,00.0,38.7,31.9,17.9,0000.0,0003.39,0007.72,0002.55
2022-09-20 16:11:00,,0829.1,5.00,0.00,30.0,28.8,00.0,38.7,31.9,17.5,0000.0,0003.40,0007.61,0002.55
2022-09-20 16:12:00,,0828.6,5.01,0.00,30.1,28.9,00.0,38.7,32.0,17.5,0000.0,0003.42,0008.28,0002.55
2022-09-20 16:13:00,,0828.9,5.00,0.00,30.1,28.8,00.0,38.7,32.0,17.7,0000.0,0003.42,0008.77,0002.55
2022-09-20 16:14:00,,0829.1,5.01,0.00,30.1,27.7,00.0,38.7,32.0,18.7,0000.0,0003.39,0010.93,0002.56
2022-09-20 16:15:00,,0829.1,5.00,0.00,30.1,26.8,00.0,38.7,31.9,18.9,0000.0,0003.36,0011.67,0002.55
2022-09-20 16:16:00,,0829.0,5.00,0.00,30.0,27.0,00.0,38.6,31.9,18.9,0000.0,0003.32,0011.54,0002.54
2022-09-20 16:17:00,,0829.0,5.00,0.00,30.0,27.3,00.0,38.6,31.7,19.2,0000.0,0003.28,0011.62,0002.51
2022-09-20 16:18:00,,0828.9,5.00,0.00,29.9,27.6,00.0,38.6,31.7,18.9,0000.0,0003.25,0012.26,0002.50
2022-09-20 16:19:00,,0828.8,5.01,0.00,29.9,27.9,00.0,38.6,31.7,18.4,0000.0,0003.22,0012.23,0002.49
2022-09-20 16:20:00,,0828.8,4.99,0.00,29.9,28.1,00.0,38.6,31.7,17.7,0000.0,0003.21,0011.64,0002.46
2022-09-20 16:21:00,,0828.7,5.01,0.00,29.9,28.3,00.0,38.6,31.8,16.4,0000.0,0003.17,0011.72,0002.45
2022-09-20 16:22:00,,0829.0,4.99,0.00,30.0,28.5,00.0,38.6,31.8,16.3,0000.0,0003.15,0011.72,0002.43
2022-09-20 16:23:00,,0828.9,5.01,0.00,30.0,28.7,00.0,38.6,31.9,16.2,0000.0,0003.11,0011.32,0002.41
2022-09-20 16:24:00,,0829.1,5.00,0.00,30.0,28.8,00.0,38.6,31.9,16.0,0000.0,0003.05,0011.33,0002.38
2022-09-20 16:25:00,,0829.1,4.99,0.00,30.1,28.9,00.0,38.7,32.0,15.9,0000.0,0002.98,0010.26,0002.35
2022-09-20 16:26:00,,0829.1,5.00,0.00,30.1,28.6,00.0,38.7,32.0,16.5,0000.0,0002.94,0009.06,0002.33
2022-09-20 16:27:00,,0829.0,5.01,0.00,30.1,27.5,00.0,38.7,31.9,16.4,0000.0,0002.91,0009.63,0002.32
2022-09-20 16:28:00,,0829.1,5.00,0.00,30.0,26.9,00.0,38.6,31.9,16.4,0000.0,0002.88,0009.48,0002.33
2022-09-20 16:29:00,,0829.1,5.00,0.00,30.0,27.1,00.0,38.6,31.8,16.4,0000.0,0002.88,0008.90,0002.33
2022-09-20 16:30:00,,0828.9,5.00,0.00,29.9,27.4,00.0,38.6,31.6,16.4,0000.0,0002.91,0008.74,0002.33
2022-09-20 16:31:00,,0829.0,5.01,0.00,29.9,27.6,00.0,38.6,31.7,16.1,0000.0,0002.89,0008.74,0002.32
2022-09-20 16:32:00,,0829.0,4.98,0.00,29.9,27.9,00.0,38.6,31.7,16.1,0000.0,0002.85,0008.53,0002.31
2022-09-20 16:33:00,,0829.0,5.01,0.00,29.9,28.2,00.0,38.6,31.7,15.9,0000.0,0002.86,0008.44,0002.31
2022-09-20 16:34:00,,0829.0,4.99,0.00,29.9,28.4,00.0,38.6,31.7,16.7,0000.0,0002.86,0008.09,0002.31
2022-09-20 16:35:00,,0829.1,5.01,0.00,30.0,28.5,00.0,38.6,31.8,16.3,0000.0,0002.89,0007.84,0002.31
2022-09-20 16:36:00,,0828.8,5.00,0.00,30.0,28.7,00.0,38.6,31.9,16.2,0000.0,0002.90,0008.18,0002.32
2022-09-20 16:37:00,,0828.8,5.00,0.00,30.0,28.8,00.0,38.6,31.9,16.7,0000.0,0002.89,0007.42,0002.31
2022-09-20 16:38:00,,0828.6,5.00,0.00,30.1,28.8,00.0,38.7,32.0,16.8,0000.0,0002.88,0006.53,0002.30
2022-09-20 16:39:00,,0829.0,4.99,0.00,30.1,27.7,00.0,38.6,32.0,16.6,0000.0,0002.92,0006.57,0002.31
2022-09-20 16:40:00,,0829.1,5.00,0.00,30.0,27.0,00.0,38.6,31.9,16.6,0000.0,0002.86,0007.04,0002.31
2022-09-20 16:41:00,,0829.1,5.01,0.00,30.0,27.1,00.0,38.6,31.8,16.3,0000.0,0002.83,0007.62,0002.32
2022-09-20 16:42:00,,0829.1,5.00,0.00,29.9,27.4,00.0,38.6,31.7,17.6,0000.0,0002.80,0007.60,0002.32
2022-09-20 16:43:00,,0829.0,4.99,0.00,29.9,27.6,00.0,38.6,31.7,18.1,0000.0,0002.89,0007.85,0002.33
2022-09-20 16:44:00,,0829.0,4.99,0.00,29.9,27.9,00.0,38.6,31.7,19.3,0000.0,0003.00,0008.13,0002.35
2022-09-20 16:45:00,,0829.0,5.01,0.00,29.9,28.1,00.0,38.6,31.7,19.2,0000.0,0003.03,0008.15,0002.36
2022-09-20 16:46:00,,0829.1,5.00,0.00,29.9,28.3,00.0,38.6,31.8,19.2,0000.0,0003.03,0008.38,0002.37
2022-09-20 16:47:00,,0829.0,5.00,0.00,29.9,28.5,00.0,38.6,31.8,19.3,0000.0,0003.04,0007.85,0002.37
2022-09-20 16:48:00,,0829.1,4.99,0.00,30.0,28.6,00.0,38.6,31.8,18.9,0000.0,0003.07,0007.98,0002.38
2022-09-20 16:49:00,,0829.0,5.01,0.00,30.0,28.4,00.0,38.6,31.9,19.1,0000.0,0003.10,0008.04,0002.40
2022-09-20 16:50:00,,0828.8,5.00,0.00,30.0,27.2,00.0,38.6,31.8,18.7,0000.0,0003.08,0007.94,0002.40
2022-09-20 16:51:00,,0828.5,4.99,0.00,29.9,26.7,00.0,38.6,31.7,19.1,0000.0,0003.14,0007.67,0002.42
2022-09-20 16:52:00,,0828.5,5.00,0.00,29.9,27.0,00.0,38.5,31.7,19.3,0000.0,0003.19,0007.11,0002.44
2022-09-20 16:53:00,,0828.4,5.00,0.00,29.9,27.3,00.0,38.5,31.6,20.0,0000.0,0003.21,0007.73,0002.46
2022-09-20 16:54:00,,0828.6,5.00,0.00,29.8,27.6,00.0,38.5,31.6,20.3,0000.0,0003.20,0008.11,0002.47
2022-09-20 16:55:00,,0828.8,4.99,0.00,29.8,27.9,00.0,38.5,31.6,20.0,0000.0,0003.15,0008.08,0002.47
2022-09-20 16:56:00,,0828.8,5.00,0.00,29.8,28.1,00.0,38.5,31.7,19.8,0000.0,0003.15,0008.25,0002.47
2022-09-20 16:57:00,,0828.8,4.99,0.00,29.9,28.3,00.0,38.5,31.7,19.7,0000.0,0003.18,0008.03,0002.48
2022-09-20 16:58:00,,0828.9,5.00,0.00,29.9,28.5,00.0,38.5,31.7,19.6,0000.0,0003.23,0007.81,0002.50
2022-09-20 16:59:00,,0829.0,5.02,0.00,29.9,28.6,00.0,38.5,31.8,19.1,0000.0,0003.25,0007.68,0002.50
